• In Latvia
  • List of Countries
  • For 7 days
  • Water Temperature
  • Satellite Maps
  • Weather Map
  • Weather Widgets
  • user-avatar
    Login

    Hourly Weather Kalgoorlie

    Today, 23 July, Sunday

    Time Temperature Precipitation Wind Pressure Humidity
    00:00 +12°C° 0 mm 1 mps 732 mmHg 82%
    01:00 +12°C° 0 mm 1 mps 732 mmHg 84%
    02:00 +11°C° 0 mm 1 mps 732 mmHg 87%
    03:00 +11°C° 0 mm 1 mps 731 mmHg 87%
    04:00 +11°C° 0 mm 1 mps 731 mmHg 87%
    05:00 +11°C° 0 mm 1 mps 731 mmHg 87%
    06:00 +12°C° 0 mm 2 mps 732 mmHg 84%
    07:00 +12°C° 0 mm 2 mps 732 mmHg 82%
    08:00 +12°C° 0 mm 3 mps 732 mmHg 79%
    09:00 +14°C° 0 mm 4 mps 732 mmHg 70%
    10:00 +16°C° 0 mm 5 mps 732 mmHg 61%
    11:00 +19°C° 0 mm 5 mps 732 mmHg 53%
    12:00 +19°C° 0 mm 6 mps 731 mmHg 49%
    13:00 +20°C° 0 mm 7 mps 730 mmHg 45%
    14:00 +21°C° 0 mm 7 mps 730 mmHg 41%
    15:00 +20°C° 0 mm 6 mps 730 mmHg 41%
    16:00 +19°C° 0 mm 5 mps 730 mmHg 42%
    17:00 +19°C° 0 mm 5 mps 730 mmHg 42%
    18:00 +18°C° 0 mm 4 mps 730 mmHg 45%
    19:00 +17°C° 0 mm 4 mps 730 mmHg 48%
    20:00 +14°C° 0 mm 4 mps 730 mmHg 49%
    21:00 +14°C° 0 mm 4 mps 730 mmHg 52%
    22:00 +13°C° 0 mm 4 mps 730 mmHg 54%
    23:00 +13°C° 0 mm 4 mps 730 mmHg 57%

    Tomorrow, 24 July, Monday

    Time Temperature Precipitation Wind Pressure Humidity
    00:00 +12°C° 0 mm 3 mps 731 mmHg 62%
    01:00 +12°C° 0 mm 3 mps 731 mmHg 67%
    02:00 +11°C° 0 mm 3 mps 731 mmHg 72%
    03:00 +11°C° 0 mm 3 mps 731 mmHg 76%
    04:00 +10°C° 0 mm 3 mps 731 mmHg 81%
    05:00 +10°C° 0 mm 3 mps 731 mmHg 85%
    06:00 +10°C° 0 mm 3 mps 731 mmHg 85%
    07:00 +10°C° 0 mm 3 mps 732 mmHg 85%
    08:00 +11°C° 0 mm 3 mps 732 mmHg 86%
    09:00 +12°C° 0 mm 3 mps 732 mmHg 77%
    10:00 +14°C° 0 mm 3 mps 732 mmHg 69%
    11:00 +17°C° 0 mm 3 mps 732 mmHg 61%
    12:00 +17°C° 0 mm 3 mps 732 mmHg 57%
    13:00 +18°C° 0 mm 4 mps 731 mmHg 54%
    14:00 +17°C° 0 mm 5 mps 731 mmHg 51%
    15:00 +18°C° 0 mm 4 mps 731 mmHg 52%
    16:00 +18°C° 0 mm 4 mps 731 mmHg 53%
    17:00 +17°C° 0 mm 4 mps 731 mmHg 54%
    18:00 +17°C° 0 mm 4 mps 731 mmHg 55%
    19:00 +15°C° 0 mm 4 mps 731 mmHg 56%
    20:00 +15°C° 0 mm 4 mps 732 mmHg 58%
    21:00 +15°C° 0 mm 4 mps 732 mmHg 58%
    22:00 +14°C° 0 mm 3 mps 732 mmHg 58%
    23:00 +14°C° 0 mm 3 mps 732 mmHg 58%

    Day after tomorrow, 25 July, Tuesday

    Time Temperature Precipitation Wind Pressure Humidity
    00:00 +13°C° 0 mm 3 mps 732 mmHg 60%
    01:00 +13°C° 0 mm 3 mps 732 mmHg 62%
    02:00 +12°C° 0 mm 3 mps 732 mmHg 63%
    03:00 +11°C° 0 mm 3 mps 732 mmHg 68%
    04:00 +11°C° 0 mm 3 mps 732 mmHg 73%
    05:00 +10°C° 0 mm 3 mps 733 mmHg 78%
    06:00 +10°C° 0 mm 3 mps 733 mmHg 77%
    07:00 +10°C° 0 mm 3 mps 733 mmHg 77%
    08:00 +10°C° 0 mm 2 mps 734 mmHg 77%
    09:00 +13°C° 0 mm 2 mps 734 mmHg 67%
    10:00 +15°C° 0 mm 2 mps 734 mmHg 58%
    11:00 +16°C° 0 mm 1 mps 734 mmHg 49%
    12:00 +17°C° 0 mm 2 mps 733 mmHg 44%
    13:00 +18°C° 0 mm 2 mps 733 mmHg 40%
    14:00 +19°C° 0 mm 2 mps 732 mmHg 35%
    15:00 +19°C° 0 mm 2 mps 732 mmHg 36%
    16:00 +18°C° 0 mm 2 mps 732 mmHg 38%
    17:00 +19°C° 0 mm 1 mps 732 mmHg 39%
    18:00 +17°C° 0 mm 2 mps 732 mmHg 41%
    19:00 +16°C° 0 mm 2 mps 732 mmHg 43%
    20:00 +15°C° 0 mm 2 mps 732 mmHg 45%
    21:00 +15°C° 0 mm 2 mps 732 mmHg 47%
    22:00 +15°C° 0 mm 2 mps 732 mmHg 49%
    23:00 +14°C° 0 mm 2 mps 732 mmHg 50%

    26 July, Wednesday

    Time Temperature Precipitation Wind Pressure Humidity
    00:00 +14°C° 0 mm 2 mps 732 mmHg 51%
    01:00 +13°C° 0 mm 3 mps 731 mmHg 52%
    02:00 +13°C° 0 mm 3 mps 731 mmHg 53%
    03:00 +12°C° 0 mm 3 mps 731 mmHg 55%
    04:00 +12°C° 0 mm 3 mps 731 mmHg 56%
    05:00 +12°C° 0 mm 3 mps 731 mmHg 57%
    06:00 +12°C° 0 mm 3 mps 732 mmHg 57%
    07:00 +14°C° 0 mm 2 mps 732 mmHg 56%
    08:00 +14°C° 0 mm 2 mps 732 mmHg 56%
    09:00 +16°C° 0 mm 3 mps 732 mmHg 50%
    10:00 +18°C° 0 mm 3 mps 732 mmHg 45%
    11:00 +20°C° 0 mm 4 mps 732 mmHg 40%
    12:00 +21°C° 0 mm 4 mps 731 mmHg 35%
    13:00 +22°C° 0 mm 5 mps 731 mmHg 31%
    14:00 +23°C° 0 mm 6 mps 730 mmHg 27%
    15:00 +22°C° 0 mm 5 mps 730 mmHg 27%
    16:00 +22°C° 0 mm 4 mps 730 mmHg 28%
    17:00 +21°C° 0 mm 4 mps 730 mmHg 29%
    18:00 +20°C° 0 mm 4 mps 731 mmHg 32%
    19:00 +18°C° 0 mm 3 mps 731 mmHg 35%
    20:00 +17°C° 0 mm 3 mps 732 mmHg 38%
    21:00 +16°C° 0 mm 3 mps 732 mmHg 42%
    22:00 +16°C° 0 mm 3 mps 732 mmHg 47%
    23:00 +14°C° 0 mm 3 mps 732 mmHg 51%

    27 July, Thursday

    Time Temperature Precipitation Wind Pressure Humidity
    00:00 +14°C° 0 mm 3 mps 732 mmHg 57%
    01:00 +14°C° 0 mm 3 mps 732 mmHg 64%
    02:00 +13°C° 0 mm 3 mps 731 mmHg 70%
    03:00 +14°C° 0 mm 2 mps 731 mmHg 76%
    04:00 +13°C° 0 mm 2 mps 731 mmHg 82%
    05:00 +13°C° 0 mm 2 mps 731 mmHg 88%
    06:00 +13°C° 0 mm 1 mps 732 mmHg 86%
    07:00 +14°C° 0 mm 1 mps 732 mmHg 85%
    08:00 +13°C° 0 mm 0 mps 732 mmHg 83%
    09:00 +16°C° 0 mm 2 mps 732 mmHg 74%
    10:00 +18°C° 0 mm 3 mps 732 mmHg 64%
    11:00 +20°C° 0 mm 4 mps 732 mmHg 55%
    12:00 +21°C° 0 mm 5 mps 731 mmHg 46%
    13:00 +22°C° 0 mm 6 mps 730 mmHg 38%
    14:00 +23°C° 0 mm 7 mps 729 mmHg 30%
    15:00 +23°C° 0 mm 6 mps 729 mmHg 28%
    16:00 +22°C° 0 mm 5 mps 728 mmHg 26%
    17:00 +22°C° 0 mm 4 mps 728 mmHg 25%
    18:00 +21°C° 0 mm 4 mps 728 mmHg 26%
    19:00 +20°C° 0 mm 4 mps 728 mmHg 28%
    20:00 +19°C° 0 mm 4 mps 728 mmHg 29%
    21:00 +19°C° 0 mm 4 mps 728 mmHg 31%
    22:00 +17°C° 0 mm 5 mps 727 mmHg 32%
    23:00 +17°C° 0 mm 5 mps 727 mmHg 33%

    28 July, Friday

    Time Temperature Precipitation Wind Pressure Humidity
    00:00 +17°C° 0 mm 6 mps 727 mmHg 33%
    01:00 +16°C° 0 mm 6 mps 726 mmHg 33%
    02:00 +16°C° 0 mm 7 mps 726 mmHg 33%
    03:00 +15°C° 0 mm 7 mps 726 mmHg 38%
    04:00 +13°C° 0 mm 8 mps 726 mmHg 43%
    05:00 +12°C° 0 mm 8 mps 726 mmHg 48%
    06:00 +12°C° 0 mm 9 mps 726 mmHg 56%
    07:00 +13°C° 0 mm 10 mps 726 mmHg 63%
    08:00 +13°C° 0 mm 11 mps 726 mmHg 71%
    09:00 +15°C° 0 mm 12 mps 726 mmHg 63%
    10:00 +18°C° 0 mm 13 mps 726 mmHg 54%
    11:00 +20°C° 0 mm 14 mps 726 mmHg 46%
    12:00 +19°C° 0.4 mm 14 mps 725 mmHg 54%
    13:00 +17°C° 0.4 mm 13 mps 725 mmHg 61%
    14:00 +15°C° 0.4 mm 12 mps 725 mmHg 69%
    15:00 +16°C° 0.2 mm 11 mps 725 mmHg 67%
    16:00 +14°C° 0.2 mm 11 mps 726 mmHg 65%
    17:00 +14°C° 0.2 mm 10 mps 726 mmHg 63%
    18:00 +13°C° 0 mm 10 mps 727 mmHg 64%
    19:00 +12°C° 0 mm 10 mps 728 mmHg 65%
    20:00 +11°C° 0 mm 9 mps 729 mmHg 67%
    21:00 +9°C° 0.1 mm 10 mps 729 mmHg 67%
    22:00 +9°C° 0.1 mm 10 mps 729 mmHg 68%
    23:00 +8°C° 0.1 mm 10 mps 730 mmHg 69%
    Show more